EZY35GL EGKK-GCRR

Flight info

Callsign EZY35GL
Flight time N/A
Altitude 35000
Route IMVUR1Z IMVUR N63 SAM M195 LORKU DCT BALDA DCT ABUPI/N0442F370 DCT DIGAL DCT GAIOS DCT TAKAV DCT VEDOD UN857 TERTO TERTO1P
Aircraft A320/M-SDE3FGHIRWY/LB1

Departure

Time 2026-05-05 12:37
Airport London Gatwick Airport (EGKK)

Arrival

Time N/A
Airport César Manrique-Lanzarote Airport (GCRR)
Time Latitude Longitude Altitude Speed Heading
2026-05-05 11:47 51.15846 -0.17635 203 ft 0 kts 347°
2026-05-05 12:19 51.15823 -0.17627 210 ft 4 kts 349°
2026-05-05 12:20 51.15797 -0.17619 210 ft 4 kts 348°
2026-05-05 12:20 51.15772 -0.17610 217 ft 4 kts 347°
2026-05-05 12:20 51.15753 -0.17602 215 ft 2 kts 310°
2026-05-05 12:20 51.15749 -0.17586 217 ft 2 kts 257°
2026-05-05 12:21 51.15750 -0.17581 216 ft 0 kts 264°
2026-05-05 12:24 51.15749 -0.17591 217 ft 3 kts 259°
2026-05-05 12:24 51.15742 -0.17650 206 ft 8 kts 257°
2026-05-05 12:24 51.15726 -0.17759 206 ft 12 kts 257°
2026-05-05 12:24 51.15706 -0.17910 206 ft 14 kts 257°
2026-05-05 12:25 51.15686 -0.18053 210 ft 12 kts 258°
2026-05-05 12:25 51.15669 -0.18177 210 ft 11 kts 257°
2026-05-05 12:25 51.15654 -0.18284 209 ft 9 kts 258°
2026-05-05 12:25 51.15624 -0.18352 211 ft 7 kts 197°
2026-05-05 12:26 51.15559 -0.18337 206 ft 12 kts 168°
2026-05-05 12:26 51.15482 -0.18310 209 ft 11 kts 167°
2026-05-05 12:26 51.15416 -0.18286 206 ft 9 kts 167°
2026-05-05 12:26 51.15361 -0.18268 209 ft 7 kts 168°
2026-05-05 12:27 51.15298 -0.18246 217 ft 13 kts 167°
2026-05-05 12:27 51.15197 -0.18253 210 ft 15 kts 232°
2026-05-05 12:27 51.15175 -0.18409 212 ft 14 kts 258°
2026-05-05 12:27 51.15156 -0.18545 209 ft 12 kts 257°
2026-05-05 12:28 51.15140 -0.18665 211 ft 10 kts 258°
2026-05-05 12:28 51.15125 -0.18769 211 ft 9 kts 256°
2026-05-05 12:28 51.15112 -0.18857 216 ft 7 kts 257°
2026-05-05 12:28 51.15103 -0.18926 210 ft 5 kts 257°
2026-05-05 12:29 51.15089 -0.19025 191 ft 13 kts 257°
2026-05-05 12:29 51.15072 -0.19154 203 ft 11 kts 258°
2026-05-05 12:29 51.15045 -0.19256 199 ft 10 kts 217°
2026-05-05 12:29 51.14987 -0.19271 201 ft 8 kts 195°
2026-05-05 12:30 51.14948 -0.19364 204 ft 11 kts 259°
2026-05-05 12:30 51.14936 -0.19477 204 ft 10 kts 259°
2026-05-05 12:30 51.14922 -0.19579 203 ft 9 kts 257°
2026-05-05 12:30 51.14906 -0.19688 204 ft 13 kts 257°
2026-05-05 12:31 51.14883 -0.19857 208 ft 19 kts 257°
2026-05-05 12:31 51.14850 -0.20095 201 ft 25 kts 257°
2026-05-05 12:31 51.14810 -0.20386 205 ft 26 kts 258°
2026-05-05 12:31 51.14780 -0.20605 201 ft 18 kts 257°
2026-05-05 12:32 51.14762 -0.20733 198 ft 17 kts 257°
2026-05-05 12:32 51.14731 -0.20959 200 ft 14 kts 257°
2026-05-05 12:32 51.14718 -0.21055 199 ft 13 kts 257°
2026-05-05 12:32 51.14700 -0.21186 199 ft 11 kts 258°
2026-05-05 12:33 51.14683 -0.21304 204 ft 13 kts 248°
2026-05-05 12:33 51.14609 -0.21324 201 ft 0 kts 168°
2026-05-05 12:35 51.14574 -0.21308 201 ft 13 kts 156°
2026-05-05 12:35 51.14519 -0.21160 202 ft 17 kts 83°
2026-05-05 12:36 51.14530 -0.21085 203 ft 0 kts 78°
2026-05-05 12:36 51.14547 -0.20960 201 ft 38 kts 78°
2026-05-05 12:36 51.14654 -0.20186 205 ft 103 kts 78°
2026-05-05 12:37 51.14846 -0.18796 206 ft 154 kts 77°
2026-05-05 12:37 51.15075 -0.17072 685 ft 159 kts 78°
2026-05-05 12:37 51.15310 -0.15356 1467 ft 161 kts 75°
2026-05-05 12:37 51.15570 -0.13488 1838 ft 185 kts 74°
2026-05-05 12:38 51.15862 -0.11400 2255 ft 198 kts 75°
2026-05-05 12:38 51.16161 -0.09236 2830 ft 203 kts 75°
2026-05-05 12:38 51.16522 -0.07074 2838 ft 199 kts 61°
2026-05-05 12:38 51.17428 -0.05487 2882 ft 197 kts 28°
2026-05-05 12:39 51.18756 -0.05059 3512 ft 197 kts 356°
2026-05-05 12:39 51.20113 -0.05471 4108 ft 202 kts 351°
2026-05-05 12:39 51.21475 -0.06098 4674 ft 210 kts 334°
2026-05-05 12:39 51.22503 -0.07749 5204 ft 221 kts 298°
2026-05-05 12:40 51.22764 -0.10185 5817 ft 226 kts 262°
2026-05-05 12:40 51.22485 -0.12617 6453 ft 224 kts 259°
2026-05-05 12:40 51.21999 -0.14958 7053 ft 224 kts 239°
2026-05-05 12:40 51.21067 -0.17096 7275 ft 247 kts 232°
2026-05-05 12:41 51.19954 -0.19354 7541 ft 270 kts 231°
2026-05-05 12:41 51.18750 -0.21752 8082 ft 282 kts 231°
2026-05-05 12:41 51.17510 -0.24208 8823 ft 286 kts 231°
2026-05-05 12:41 51.16254 -0.26695 9601 ft 290 kts 231°
2026-05-05 12:42 51.14976 -0.29222 10164 ft 301 kts 231°
2026-05-05 12:42 51.13613 -0.31915 10357 ft 324 kts 231°
2026-05-05 12:42 51.12167 -0.34774 10743 ft 337 kts 231°
2026-05-05 12:42 51.10684 -0.37708 11358 ft 343 kts 231°
2026-05-05 12:43 51.09176 -0.40691 12013 ft 348 kts 231°
2026-05-05 12:43 51.07647 -0.43716 12657 ft 353 kts 231°
2026-05-05 12:43 51.06099 -0.46777 13304 ft 358 kts 231°
2026-05-05 12:43 51.04532 -0.49874 13924 ft 362 kts 231°
2026-05-05 12:44 51.02941 -0.53015 14515 ft 366 kts 231°
2026-05-05 12:44 51.01360 -0.56138 14855 ft 368 kts 231°
2026-05-05 12:44 50.99758 -0.59303 15121 ft 369 kts 231°
2026-05-05 12:44 50.98139 -0.62469 15764 ft 370 kts 228°
2026-05-05 12:45 50.96372 -0.65456 16396 ft 372 kts 226°
2026-05-05 12:45 50.94607 -0.68475 17010 ft 374 kts 227°
2026-05-05 12:45 50.92848 -0.71528 17625 ft 376 kts 227°
2026-05-05 12:45 50.91088 -0.74602 18226 ft 378 kts 227°
2026-05-05 12:46 50.89312 -0.77691 18744 ft 380 kts 227°
2026-05-05 12:46 50.87518 -0.80797 19279 ft 383 kts 227°
2026-05-05 12:46 50.85716 -0.83907 19806 ft 385 kts 227°
2026-05-05 12:46 50.83903 -0.87033 20330 ft 386 kts 227°
2026-05-05 12:47 50.82078 -0.90171 20869 ft 388 kts 227°
2026-05-05 12:47 50.80241 -0.93322 21396 ft 390 kts 227°
2026-05-05 12:47 50.78393 -0.96477 21917 ft 392 kts 226°
2026-05-05 12:47 50.76534 -0.99639 22431 ft 394 kts 226°
2026-05-05 12:48 50.74663 -1.02821 22932 ft 396 kts 226°
2026-05-05 12:48 50.72787 -1.06022 23432 ft 398 kts 227°
2026-05-05 12:48 50.70900 -1.09241 23846 ft 400 kts 226°
2026-05-05 12:48 50.69005 -1.12464 24250 ft 402 kts 226°
2026-05-05 12:49 50.67126 -1.15655 24643 ft 403 kts 226°
2026-05-05 12:49 50.65212 -1.18902 25026 ft 405 kts 226°
2026-05-05 12:49 50.63290 -1.22160 25390 ft 407 kts 226°
2026-05-05 12:49 50.62638 -1.23262 25521 ft 407 kts 226°
2026-05-05 12:50 50.61601 -1.25047 25701 ft 408 kts 226°
2026-05-05 12:50 50.59679 -1.28352 26046 ft 410 kts 226°
2026-05-05 12:50 50.57729 -1.31647 26392 ft 412 kts 225°
2026-05-05 12:50 50.55761 -1.34939 26741 ft 414 kts 225°
2026-05-05 12:51 50.53783 -1.38239 27082 ft 415 kts 225°
2026-05-05 12:51 50.51801 -1.41546 27433 ft 417 kts 225°
2026-05-05 12:51 50.49813 -1.44869 27771 ft 418 kts 225°
2026-05-05 12:51 50.47822 -1.48203 28101 ft 420 kts 225°
2026-05-05 12:52 50.45849 -1.51514 28418 ft 421 kts 225°
2026-05-05 12:52 50.43846 -1.54877 28734 ft 423 kts 225°